Wind_Speed
10 9 9 9 10 7 1 2 1 1 1 1 2 2 5 6 9 10 10 10 7 7 7 8 8 8 10 11 11 12 13 10 7 6 7 10 20 22 20 22 21 19 19 17 16 15 14 15 14 13 13 13 12 11 10 10 11 12 12 12 13 14 15 16 16 15 12 10 11 15 15 14 14 14 15 15 16 16 15 17 20 21 22 21 20 19 19 17 15 14 14 14 15 15 17 18 19
10 9 10 10 7 2 2 1 1 1 2 1 2 2 8 8 9 10 10 9 8 10 9 10 10 10 14 14 14 16 16 15 16 13 12 22 23 21 23 23 22 21 19 18 17 15 14 15 14 13 13 12 10 10 9 9 10 11 11 12 13 12 13 14 15 15 13 11 12 14 14 14 14 14 15 15 16 16 16 17 19 21 21 22 20 19 19 18 18 16 13 14 14 14 15 17 18
10 7 7 6 2 2 1 2 1 1 1 2 2 3 9 9 10 11 10 12 12 13 11 12 11 9 12 14 15 16 14 16 22 16 14 26 20 20 26 23 23 22 20 19 17 15 14 14 14 13 12 11 10 9 9 10 10 11 11 11 12 11 11 12 13 14 14 13 12 14 14 14 14 14 15 15 16 17 17 17 18 20 21 21 21 20 19 18 19 19 16 14 14 14 14 15 17
10 8 5 2 3 1 0 1 1 1 1 1 3 3 7 10 12 13 11 14 14 13 11 11 10 8 12 16 15 14 14 15 20 17 12 21 20 23 27 23 23 22 21 18 16 16 14 13 13 12 11 11 11 10 10 10 11 11 10 11 12 10 10 11 12 13 14 13 13 13 14 14 15 15 15 15 16 17 18 17 18 20 19 19 20 19 18 19 18 19 18 15 13 14 14 14 16
11 11 6 4 2 1 0 1 1 0 2 2 3 3 8 13 13 14 12 13 13 12 12 10 10 10 12 13 11 10 14 15 19 20 17 22 24 25 26 25 24 22 21 18 17 16 13 13 12 13 11 11 11 10 10 10 10 10 10 12 12 10 10 10 11 12 13 13 13 14 13 14 15 15 15 15 16 17 17 18 18 18 17 18 19 18 18 19 18 17 18 16 13 13 14 13 14
11 9 3 4 1 2 1 1 2 2 3 3 3 6 11 13 13 14 13 13 12 12 13 11 13 14 12 12 11 11 15 15 16 20 22 25 25 25 27 27 25 23 21 19 17 15 13 11 12 12 11 11 11 10 10 10 10 10 10 12 11 10 10 10 10 11 12 12 14 14 14 14 14 15 15 16 16 16 17 18 18 17 16 18 18 18 18 20 18 17 17 15 13 12 13 13 14
9 4 0 1 1 2 2 2 2 2 3 3 2 9 12 13 13 14 14 13 11 12 13 13 15 14 12 12 12 15 18 18 17 21 25 27 25 25 28 27 25 23 21 19 17 15 13 11 12 12 11 11 12 12 11 11 11 10 11 12 11 10 11 10 10 11 11 12 13 14 14 14 13 15 16 16 16 16 17 17 17 16 16 18 19 19 19 20 18 17 16 14 13 12 12 12 13
6 1 2 0 0 1 2 2 2 2 2 3 5 9 13 13 13 12 13 12 9 11 13 15 16 14 14 14 12 15 20 22 23 26 28 27 26 25 27 27 23 22 20 19 18 15 13 12 12 12 12 12 13 14 12 12 12 11 11 12 11 11 11 11 11 11 11 12 12 14 15 14 14 15 16 16 16 15 16 16 17 15 16 18 19 20 20 20 18 16 16 14 13 13 11 12 13
3 1 2 0 1 1 2 1 2 1 2 5 7 10 13 13 12 12 12 11 10 11 14 16 15 15 16 17 14 14 20 26 28 28 27 25 26 26 25 25 23 22 21 19 18 16 14 13 12 12 13 13 14 14 12 12 12 12 12 12 12 11 11 11 11 11 12 12 12 14 15 15 14 16 17 16 15 15 15 17 17 16 16 18 19 20 20 20 18 15 15 16 15 14 12 12 12
1 1 1 1 1 1 1 1 1 1 3 8 9 12 11 12 11 11 12 12 13 12 16 17 16 17 17 17 13 13 20 26 28 26 25 24 24 26 26 24 24 24 21 19 18 16 15 14 13 13 14 14 15 14 12 11 12 13 13 12 11 11 12 12 12 12 13 12 13 14 15 16 15 16 16 16 15 15 15 16 17 16 15 16 17 18 19 20 19 17 16 17 16 14 13 12 12
1 0 1 2 1 1 2 1 1 1 4 7 9 11 9 11 11 10 12 13 14 14 17 16 16 18 18 15 11 16 24 25 25 25 24 23 22 27 29 24 23 23 21 19 18 16 15 14 14 15 15 15 15 13 12 12 12 13 13 12 11 11 12 12 13 13 14 13 13 14 15 16 16 17 16 16 16 15 14 15 16 15 15 15 16 16 18 19 19 18 17 16 15 14 13 13 12
3 0 0 3 0 1 2 2 2 3 7 8 10 9 8 9 11 11 11 13 14 15 16 15 15 16 16 14 10 18 25 23 23 24 23 22 21 26 28 24 23 23 21 20 18 17 15 14 14 14 15 15 14 13 12 12 12 13 12 11 11 11 12 12 13 13 14 14 14 14 15 16 17 17 16 16 16 15 14 14 15 16 15 15 15 16 18 18 18 17 17 15 13 13 13 12 12
2 0 2 3 2 1 2 3 4 6 7 7 8 9 8 8 12 11 10 13 13 14 16 16 16 15 15 13 11 16 20 22 23 22 22 21 21 24 27 25 23 22 20 19 18 17 16 15 14 14 15 15 14 13 12 12 12 12 12 12 12 11 12 13 13 13 14 14 15 15 15 17 17 17 17 16 15 15 15 15 14 15 15 14 15 18 18 17 17 16 16 14 12 13 13 12 12
1 1 2 3 1 1 1 2 4 5 4 5 6 7 5 3 10 11 10 14 12 12 15 17 17 15 14 13 12 11 16 22 22 21 21 21 21 22 26 26 23 21 19 18 18 16 16 15 14 14 15 15 14 13 12 12 12 13 12 13 12 12 13 14 14 14 15 15 15 15 16 17 18 17 17 16 15 15 15 15 14 14 14 14 15 18 17 16 16 16 15 13 12 13 13 12 11
1 1 0 2 1 2 3 4 6 6 5 7 8 8 5 3 7 11 11 12 12 13 14 16 14 13 13 14 12 12 19 24 22 21 22 20 22 22 24 27 24 21 19 19 18 16 16 16 14 13 14 15 14 13 12 13 13 13 13 13 13 13 14 15 15 15 15 15 15 17 18 18 19 18 17 16 15 14 14 15 14 14 15 14 15 16 15 15 14 14 14 13 12 13 12 12 11
1 1 1 1 2 3 4 6 6 4 8 10 9 8 10 7 7 10 8 6 12 13 12 13 12 12 14 15 16 20 25 25 22 22 22 21 22 21 20 25 25 21 19 18 17 16 17 16 14 14 15 14 13 13 13 13 13 13 14 14 15 15 15 15 15 15 16 16 16 17 19 19 19 18 18 17 16 14 13 15 15 14 14 14 14 15 14 14 13 13 13 12 12 12 11 11 11
2 0 1 2 2 1 4 4 4 1 8 12 8 9 10 10 5 8 9 7 12 13 11 10 11 15 16 18 23 27 26 24 23 22 22 21 20 19 18 20 24 21 17 17 16 17 19 18 16 15 14 14 14 15 13 13 14 14 15 15 16 16 16 16 16 16 17 16 17 18 20 21 20 20 19 18 18 15 13 13 13 13 13 12 12 12 12 12 12 12 12 12 12 11 11 11 11
1 1 2 2 1 1 5 2 4 3 8 12 9 11 11 12 6 7 12 10 11 11 11 12 14 18 20 24 28 27 26 24 23 22 21 19 18 18 17 16 20 21 16 18 19 16 18 18 16 16 15 14 15 15 13 13 14 14 15 16 16 16 16 15 15 16 16 16 17 19 20 22 21 20 20 18 18 17 13 12 12 12 12 11 10 10 10 11 11 12 12 12 12 12 11 10 11
2 0 1 1 2 2 5 3 3 2 6 10 11 12 12 13 10 8 11 12 11 11 12 16 18 21 23 26 27 26 25 24 22 21 20 19 19 18 17 15 17 21 16 17 20 16 16 18 16 16 16 15 15 14 13 15 15 14 15 14 14 15 15 14 15 17 18 17 18 20 20 21 21 20 19 18 17 16 14 11 11 11 11 10 10 10 10 11 11 11 11 10 10 9 9 7 6
2 2 2 1 1 4 5 3 2 1 4 9 11 11 11 12 10 8 11 13 12 12 14 17 21 22 23 23 24 25 23 22 21 20 19 19 20 18 18 16 16 22 17 16 20 16 16 19 17 15 15 15 15 14 14 15 15 14 15 14 13 14 15 15 15 16 18 18 18 20 20 21 20 19 18 18 16 14 12 11 11 11 10 11 13 13 12 11 11 9 8 8 8 7 7 6 4
1 2 2 1 1 3 3 3 3 1 7 9 11 9 11 11 9 8 11 13 10 12 15 19 22 23 23 21 22 24 21 21 20 19 19 19 20 18 18 17 18 24 20 16 18 17 17 18 16 16 15 14 14 14 13 13 13 13 15 15 14 14 14 15 15 15 16 18 17 19 21 20 20 18 17 16 15 13 12 11 11 11 11 12 13 12 10 9 8 6 5 5 6 6 5 4 4
2 2 2 3 1 1 1 3 5 6 6 8 12 11 12 11 8 10 11 9 8 11 16 20 22 22 23 21 21 21 20 19 18 18 18 18 19 18 19 18 20 26 21 16 18 18 18 16 16 17 15 13 12 12 13 13 13 14 14 15 15 15 16 15 16 15 16 18 18 20 21 19 18 17 16 16 15 14 12 10 10 9 8 9 9 7 5 5 4 2 3 3 4 4 2 3 4
3 1 1 4 1 1 1 2 5 9 5 10 11 10 11 13 10 11 10 8 9 13 18 20 21 22 23 22 20 19 18 17 18 18 18 18 19 18 19 19 20 23 20 17 18 18 17 15 16 16 16 17 14 11 12 12 12 13 15 15 16 17 17 15 17 17 18 20 20 21 20 18 17 16 16 15 15 13 11 9 9 8 7 7 7 6 4 4 2 0 2 2 4 5 5 5 5
4 0 2 4 2 2 1 4 5 7 3 8 8 10 9 13 11 10 9 10 13 15 19 20 20 23 23 20 18 18 17 17 18 19 18 17 18 18 18 18 19 21 21 19 18 19 17 15 15 16 17 20 18 13 13 12 13 14 14 14 15 16 15 14 17 18 18 19 19 20 18 15 14 14 14 14 13 12 11 10 9 8 8 9 8 6 4 2 2 2 1 2 4 6 6 6 7
6 4 4 4 3 4 3 7 5 5 2 8 3 10 8 9 9 9 11 13 16 17 19 20 20 21 20 19 18 17 16 17 18 18 17 16 18 19 18 18 19 19 22 21 19 19 18 16 16 16 17 19 19 18 14 11 13 15 14 14 14 14 14 15 18 18 18 17 17 18 16 14 13 12 13 13 13 12 11 10 9 8 7 7 8 6 4 2 2 3 3 3 4 4 5 7 8
7 6 6 4 3 5 4 6 4 3 4 5 5 11 8 7 9 9 12 16 17 18 19 20 20 19 18 17 17 16 16 16 18 18 17 16 17 18 17 18 18 19 21 21 19 20 19 18 16 16 16 17 18 21 20 14 10 12 15 14 14 14 15 17 18 17 16 16 16 15 13 13 12 11 12 13 14 14 13 10 8 8 7 5 6 5 4 3 3 3 4 3 2 2 4 5 4
8 6 7 7 4 5 2 5 5 2 4 2 5 11 10 8 9 8 13 17 18 19 20 19 19 18 17 17 16 15 15 16 17 17 17 16 15 16 17 16 18 21 21 20 19 19 19 18 17 16 15 15 17 20 22 19 12 11 13 14 14 14 14 16 17 15 13 13 14 12 12 12 12 11 12 13 13 13 13 12 9 10 9 6 5 5 4 4 3 2 4 3 1 2 4 5 4
11 7 7 9 7 5 3 5 6 2 3 2 3 9 11 8 8 9 14 17 18 19 20 20 18 16 16 17 15 12 13 16 17 16 16 16 14 14 15 15 19 21 20 19 18 18 18 17 17 16 14 15 16 18 19 19 16 14 13 13 14 14 13 15 16 13 11 12 12 12 13 13 13 12 11 11 11 12 12 11 9 9 7 5 5 5 4 4 4 4 5 4 3 2 2 4 4
9 8 6 6 9 5 4 5 5 3 2 2 2 8 10 8 10 13 15 17 18 19 19 18 17 16 16 15 13 11 13 15 15 15 15 15 13 14 15 14 18 20 19 19 18 18 16 16 17 15 14 15 16 18 18 19 19 16 14 13 13 12 12 14 14 12 12 12 11 12 13 12 13 12 10 10 10 11 11 10 8 7 5 5 5 5 5 4 4 4 4 3 2 1 2 4 3
7 8 4 3 5 4 4 3 4 4 4 2 1 5 9 8 12 15 15 17 19 18 18 17 16 15 14 14 12 12 13 13 13 15 15 15 14 14 15 14 16 19 18 19 19 18 16 15 16 14 14 14 15 17 17 18 18 16 15 13 11 11 12 13 13 12 12 12 11 13 13 12 13 12 10 9 9 9 9 8 8 6 5 6 5 5 4 4 3 3 2 2 1 1 2 3 3
5 6 2 2 2 4 5 4 4 5 2 1 1 2 7 10 15 16 15 18 19 18 17 17 15 14 14 13 12 12 12 13 14 16 15 15 14 14 15 15 16 17 18 20 19 17 16 15 15 15 15 15 15 15 16 17 17 16 15 14 12 12 12 13 12 12 12 12 12 12 12 13 13 11 9 9 9 9 10 8 8 7 6 5 4 5 5 4 3 3 2 2 2 2 1 1 2
4 4 1 2 2 4 6 4 4 4 2 0 1 2 3 8 15 15 15 17 18 17 17 17 16 15 15 13 13 12 12 14 16 16 16 15 15 15 15 16 16 16 18 21 19 16 16 15 16 16 16 16 15 15 15 16 16 16 15 14 13 13 13 13 13 12 12 12 11 11 11 11 12 10 9 10 10 10 10 9 8 8 6 5 4 4 6 3 3 3 3 2 3 3 1 1 3
3 2 1 2 3 4 4 3 3 5 6 2 0 3 1 4 13 15 15 17 17 16 16 17 17 16 15 12 12 12 11 13 14 16 16 14 15 15 16 16 16 17 18 19 18 16 17 16 16 17 16 16 15 15 14 15 15 15 14 13 12 12 12 13 13 13 13 12 11 11 11 10 10 9 7 8 9 9 9 9 8 7 6 6 4 3 4 3 3 3 3 2 2 4 5 3 4
3 3 2 3 4 5 5 3 3 4 6 4 3 5 3 6 11 16 15 16 17 16 16 17 16 15 14 12 12 12 11 11 12 15 17 15 15 15 16 16 15 17 18 17 17 17 17 16 16 17 16 16 16 15 14 14 15 14 14 13 12 12 12 12 13 12 13 12 11 11 10 9 9 9 7 6 6 8 8 8 8 6 5 5 3 4 4 3 4 3 2 2 1 3 5 3 0
4 5 2 3 5 6 7 6 6 7 6 7 5 5 4 7 9 14 14 16 15 15 15 15 15 15 14 13 13 12 12 12 12 15 17 17 17 16 17 17 16 17 18 17 16 18 18 15 16 17 16 16 15 14 14 14 14 13 13 12 11 12 12 12 11 12 12 12 11 11 10 9 8 8 8 5 5 7 7 8 7 6 5 4 4 4 3 4 5 4 3 1 2 4 6 4 2
4 7 4 5 4 4 7 7 9 10 6 7 5 5 4 6 10 14 13 15 14 14 15 13 14 14 13 12 12 13 12 12 14 16 17 17 17 17 17 17 17 16 18 19 16 18 19 16 16 16 15 16 15 14 14 13 13 13 13 11 10 12 13 12 11 11 11 11 12 11 10 9 8 8 7 7 7 8 7 7 6 6 5 4 4 4 4 5 4 4 2 1 2 4 6 4 3
3 7 5 5 4 2 5 7 9 10 5 5 4 4 5 6 9 13 13 15 14 14 14 13 14 13 12 13 13 13 13 12 16 18 17 18 18 18 18 17 19 18 18 19 18 18 18 17 17 16 15 15 14 14 13 13 13 13 13 11 10 12 13 13 12 12 11 11 12 11 10 9 9 8 7 7 7 8 7 6 6 6 5 4 5 5 6 4 2 2 1 2 2 6 5 1 1
2 5 4 3 3 1 2 5 8 6 3 5 6 5 5 5 4 5 7 12 15 16 15 14 15 14 12 13 14 13 12 12 15 17 17 18 18 19 18 17 20 21 18 18 18 18 17 17 17 16 15 15 14 13 13 12 12 12 13 12 11 11 12 12 12 12 11 11 12 11 10 9 8 8 6 7 7 7 7 6 6 6 5 4 4 5 4 2 2 3 3 2 3 6 5 2 1
3 3 4 3 3 3 2 4 6 3 1 5 9 6 3 3 4 3 2 4 9 12 15 14 14 14 12 13 14 13 13 13 14 15 16 18 19 19 18 17 20 20 18 19 18 17 17 17 17 16 15 14 13 13 12 13 12 11 11 12 12 12 11 12 12 13 12 11 11 10 9 9 8 7 6 6 6 6 7 6 6 5 5 4 3 3 2 2 3 3 3 4 4 6 3 2 0
5 4 4 3 6 5 2 5 8 3 1 4 7 4 2 2 3 3 4 1 3 5 11 14 12 12 13 14 14 13 14 14 14 15 15 17 20 19 18 18 20 19 18 19 19 18 17 17 18 17 16 14 13 12 12 12 11 10 10 10 11 11 11 11 12 12 12 11 11 9 9 9 8 7 7 6 6 6 6 6 6 5 4 4 2 2 2 2 2 2 2 3 6 7 4 1 1
6 6 5 6 11 7 2 7 9 3 2 3 7 4 3 2 2 3 3 2 3 9 10 15 12 11 13 14 15 14 15 14 14 15 14 16 19 18 18 19 20 20 19 20 20 18 18 18 19 18 16 15 13 12 11 12 12 11 10 10 10 11 10 11 12 12 11 11 11 10 9 9 8 8 7 6 6 6 6 5 6 5 4 3 2 2 3 2 2 2 4 4 5 7 9 4 2
6 8 9 8 12 8 6 9 9 4 2 6 7 3 3 3 5 5 1 1 1 8 12 16 13 12 12 13 14 15 14 14 14 15 14 16 18 18 18 19 19 19 19 20 20 19 18 18 19 18 17 15 14 13 12 13 13 12 11 11 11 11 11 11 12 12 12 11 11 11 10 9 8 8 7 6 6 6 5 5 6 5 4 3 2 2 3 2 2 2 3 4 4 5 8 8 3
4 7 7 9 10 10 12 11 7 4 3 6 7 2 2 2 4 5 3 2 3 7 14 17 14 12 13 12 13 14 14 14 14 14 15 16 18 18 18 19 19 19 19 20 20 20 20 19 19 18 16 15 15 14 13 13 12 12 12 10 11 11 11 11 11 11 12 11 11 11 11 10 8 8 8 7 7 6 5 6 5 5 4 3 2 2 2 2 2 2 2 3 4 5 7 10 7
3 8 15 13 11 13 14 10 4 2 4 5 6 2 2 3 4 5 5 4 5 9 15 17 14 13 15 14 13 14 14 15 14 14 15 16 18 19 19 19 19 19 19 20 21 21 21 21 20 19 18 17 16 15 14 14 13 12 12 10 10 11 10 11 11 11 11 10 10 11 10 10 9 8 8 7 7 7 5 5 5 5 4 4 3 2 3 3 3 3 2 2 3 4 5 7 8
1 14 16 10 11 13 12 8 4 4 4 5 6 3 2 3 2 5 7 6 7 11 15 17 17 15 15 15 15 15 15 15 14 14 15 16 18 19 19 19 18 19 19 20 22 22 21 22 20 20 20 18 16 16 15 14 13 13 12 10 10 10 11 12 12 11 11 10 11 11 10 10 9 7 8 7 7 7 6 5 5 4 3 4 5 3 3 4 3 3 3 2 2 3 3 2 4
8 19 16 9 10 9 8 5 3 5 3 4 9 8 3 3 4 6 7 7 8 9 12 15 17 15 15 15 16 15 13 13 13 14 15 18 19 19 19 19 19 19 19 20 23 22 21 21 20 20 21 19 17 16 14 13 13 14 12 10 10 11 11 12 13 12 11 11 12 11 10 10 10 8 8 8 8 7 7 6 6 5 4 5 5 4 3 4 3 3 3 2 2 2 1 1 2
11 16 15 10 8 5 4 2 1 3 1 2 10 13 7 3 4 6 6 6 9 10 11 14 15 16 16 15 15 16 14 12 12 13 15 19 20 20 20 19 19 20 19 20 22 23 22 21 20 20 20 20 19 17 15 13 13 14 12 11 11 12 12 12 14 13 12 12 12 11 11 11 10 9 9 8 8 8 8 7 7 6 6 5 5 5 4 4 3 4 4 2 2 1 0 1 2
8 9 11 8 5 2 1 2 1 2 1 3 9 13 11 6 3 7 8 7 11 13 12 14 16 17 16 14 14 15 14 14 14 12 13 17 18 19 20 20 20 21 21 20 21 22 23 21 21 21 20 20 20 18 16 14 13 13 12 12 12 12 12 12 13 13 13 13 11 11 12 11 10 10 10 9 9 9 9 8 7 7 7 6 5 5 5 4 4 5 4 3 3 3 1 2 2
8 5 9 6 2 0 2 2 3 2 1 4 9 11 9 5 2 8 12 11 13 14 12 14 17 17 16 15 15 13 12 14 14 12 12 13 13 16 19 18 19 20 21 21 21 21 22 21 22 21 20 21 20 18 17 15 14 13 12 13 13 12 11 12 13 12 12 13 11 11 12 12 11 11 11 10 10 10 11 10 9 8 8 7 7 6 4 5 6 6 4 3 3 3 2 2 2
7 6 5 5 3 0 1 2 3 2 2 3 4 6 4 3 1 7 12 12 12 12 11 10 13 17 16 15 14 13 11 12 12 13 13 12 13 17 18 18 18 18 20 20 20 20 21 22 22 21 20 21 20 19 18 16 15 13 13 14 14 12 11 11 12 11 12 13 12 12 12 11 12 11 11 11 10 11 11 10 10 9 8 8 8 7 4 5 6 5 5 4 3 3 3 3 3
10 9 7 5 5 4 1 2 2 2 2 3 2 2 2 1 1 3 8 9 7 8 7 5 5 11 15 14 13 13 13 11 10 12 14 13 16 18 18 19 19 19 20 21 21 20 21 22 22 21 20 20 20 19 19 18 16 15 14 13 13 13 11 11 11 11 12 12 12 12 11 11 11 11 11 11 11 11 10 10 10 9 9 9 9 9 6 6 6 5 4 4 2 3 3 3 4
8 10 8 5 6 6 3 1 1 4 3 1 2 2 2 1 2 2 5 8 6 4 4 6 3 7 11 14 12 12 13 12 10 11 13 14 17 19 19 21 21 20 20 21 23 22 21 22 22 22 21 20 20 20 19 18 16 16 15 14 13 12 12 11 11 11 12 12 11 11 11 11 11 11 12 11 10 11 11 11 11 10 10 9 9 9 8 7 8 6 5 4 3 4 4 4 4
1 7 9 7 6 5 2 0 4 6 4 1 2 1 1 2 1 1 6 7 5 3 3 6 5 6 7 9 10 12 13 12 11 11 10 13 17 18 19 21 22 22 20 19 23 23 22 23 22 22 21 19 19 20 19 18 16 16 16 15 14 13 12 12 11 11 11 11 11 12 11 11 11 11 12 11 11 12 11 11 10 10 10 9 9 9 8 8 8 7 6 6 6 5 6 4 3
4 3 2 4 5 4 2 2 4 5 2 1 4 4 1 2 0 2 8 8 5 5 4 5 5 6 7 7 7 11 14 12 11 12 11 13 17 18 19 21 21 22 21 20 21 21 22 23 22 22 22 20 20 19 18 18 17 16 16 15 14 14 12 11 11 11 11 11 11 11 11 11 12 12 12 11 12 12 11 11 10 10 10 10 9 9 9 9 8 8 7 7 7 7 7 6 5
9 4 3 1 5 5 4 4 4 3 2 2 2 4 2 4 2 4 9 12 10 8 5 6 6 6 8 8 9 12 14 12 11 12 11 12 17 19 19 21 22 22 21 21 21 21 21 22 22 22 21 20 20 19 18 18 17 15 15 15 14 14 13 12 12 12 12 11 11 11 11 11 12 12 12 12 13 12 12 12 11 10 10 10 10 10 9 9 9 8 8 8 8 8 8 7 6
11 8 4 5 5 3 4 3 3 3 2 3 1 2 3 4 3 6 9 13 15 13 9 8 8 8 8 8 10 13 14 12 12 13 12 12 18 22 21 21 22 22 22 22 21 21 21 21 21 21 21 20 20 19 18 18 17 16 15 16 15 14 15 14 13 13 13 13 12 13 13 12 11 12 12 13 13 13 12 12 12 11 11 11 11 10 10 10 10 9 9 8 9 10 9 8 7
9 8 6 6 4 2 3 4 4 4 3 2 3 2 3 2 2 6 9 11 15 17 13 10 9 10 9 6 8 10 12 13 13 14 14 14 18 22 22 21 22 23 22 22 23 22 21 21 22 22 21 21 20 19 19 18 17 16 15 16 16 15 15 15 14 13 14 14 13 14 14 14 13 12 12 12 13 13 13 12 12 12 12 12 12 11 11 11 10 10 10 9 8 10 10 8 7
10 9 8 7 5 3 3 5 5 4 5 3 3 3 2 2 1 4 8 9 12 16 15 11 11 12 10 7 8 7 8 12 14 15 15 15 18 22 22 21 21 22 22 21 22 22 21 22 23 23 22 22 21 20 20 19 18 17 16 16 16 15 15 15 15 14 14 14 13 14 14 15 14 14 13 12 13 13 13 13 12 12 12 12 13 12 11 11 11 11 10 10 9 10 9 8 8
Wind_Direction
153 161 167 178 210 236 48 91 266 198 221 208 211 160 153 165 121 115 111 108 101 102 99 90 82 77 83 86 92 69 52 59 68 100 109 133 146 147 142 138 138 134 132 131 126 122 122 121 119 120 125 129 128 127 121 111 111 113 111 107 105 103 104 104 102 99 97 98 96 103 113 113 105 103 105 104 107 103 98 99 102 108 110 108 105 100 98 95 89 85 87 92 94 96 99 100 102
171 191 199 196 207 219 39 275 274 217 227 137 220 190 144 145 122 114 116 119 113 113 107 94 87 88 95 94 92 73 62 68 82 90 109 133 139 139 139 140 138 133 131 130 126 123 125 126 126 129 131 131 126 120 113 104 103 106 107 104 101 99 102 104 105 108 110 106 100 111 120 113 105 106 108 105 107 101 94 97 102 111 114 113 110 107 107 106 102 98 92 91 95 97 98 101 103
197 217 215 180 138 83 115 254 268 269 254 120 177 163 137 131 116 119 121 113 108 112 109 105 101 95 100 93 84 80 84 84 96 101 119 134 135 143 144 139 134 129 128 130 128 127 131 131 129 129 124 121 114 110 107 101 97 97 101 102 103 101 105 108 113 116 115 112 110 117 119 114 110 109 106 103 106 103 97 99 105 112 113 114 113 112 112 110 110 108 99 89 93 98 99 103 105
217 247 254 135 60 42 157 286 275 302 315 157 146 137 131 124 121 123 116 111 112 112 104 102 95 85 90 95 94 94 101 96 105 111 124 134 134 140 137 129 124 122 126 127 125 128 133 130 123 119 114 114 112 111 107 101 97 95 100 107 110 108 106 108 111 112 110 112 114 117 117 116 116 109 106 105 105 104 103 104 107 112 113 115 114 114 115 109 108 106 99 93 95 100 103 104 106
228 250 235 130 63 286 59 324 285 231 235 220 131 137 132 123 124 123 115 113 112 108 106 107 99 95 87 90 100 102 111 110 113 116 122 129 130 131 126 123 120 119 124 121 123 128 130 126 116 110 109 113 113 113 109 103 100 96 105 115 113 107 103 100 102 106 109 116 116 114 115 119 120 112 109 109 106 105 107 110 113 114 112 116 115 116 115 107 104 100 97 96 97 100 102 105 108
231 251 220 116 75 257 244 241 231 226 230 227 145 136 128 125 125 121 117 110 109 109 108 102 99 103 91 86 98 105 117 117 115 118 123 128 131 128 122 123 120 118 120 117 123 126 125 122 113 110 110 114 112 110 107 101 99 95 106 116 110 103 104 104 104 110 117 122 120 115 115 121 120 114 112 109 107 108 107 111 115 116 115 115 115 117 114 107 106 102 96 96 98 101 105 109 111
226 244 46 64 59 253 264 247 211 224 220 239 184 136 131 131 126 121 119 114 116 118 113 107 104 101 95 98 100 100 110 114 118 122 125 128 130 124 118 119 118 116 118 119 123 122 122 120 117 116 111 111 107 103 101 99 97 95 106 114 111 109 112 113 116 120 124 125 124 121 118 120 120 115 114 110 109 112 111 111 115 117 117 116 116 116 111 106 106 103 100 101 104 105 108 113 115
234 244 118 251 239 240 251 237 213 228 181 275 264 147 136 133 128 125 122 122 130 123 120 119 111 101 99 103 101 102 108 113 118 122 125 127 126 120 116 116 116 115 115 120 121 116 116 118 118 112 104 102 101 102 102 103 105 104 108 112 109 110 114 116 120 121 122 122 123 124 121 120 119 117 117 113 113 115 114 114 115 117 116 116 117 114 110 107 104 103 106 110 112 111 111 116 119
220 274 113 212 249 241 243 238 205 197 148 246 233 153 137 133 130 129 126 127 130 121 117 117 111 106 105 104 103 108 110 114 119 122 125 126 123 120 116 115 116 117 113 114 115 113 110 109 110 107 102 99 100 104 106 108 111 112 109 109 109 111 116 118 121 121 121 122 121 121 120 119 118 119 120 118 115 114 115 118 119 118 116 116 118 117 115 111 108 110 114 116 117 115 114 116 119
143 269 80 255 259 252 225 264 234 148 192 217 178 143 136 132 130 131 131 129 127 119 112 112 110 109 109 107 107 114 116 121 123 123 124 123 123 118 114 114 115 116 112 110 112 112 109 105 105 104 102 99 100 104 108 110 112 114 111 111 115 121 122 121 122 122 121 120 121 120 120 120 120 122 122 119 116 113 115 117 119 118 116 116 117 118 116 113 114 117 117 118 119 116 114 115 116
244 251 57 262 234 227 179 216 269 93 227 208 143 137 138 132 130 130 132 128 122 115 114 115 113 112 111 107 107 119 123 126 124 123 123 122 123 115 113 115 113 114 113 111 112 111 108 106 104 104 103 101 103 106 110 111 110 110 109 112 119 123 121 119 119 120 122 121 120 120 120 122 123 124 122 118 115 114 115 115 117 115 114 115 115 115 115 115 116 116 116 117 117 116 114 113 113
262 126 356 267 186 213 143 151 195 171 205 181 138 142 144 140 133 130 134 126 124 125 127 126 119 116 112 109 115 126 128 127 124 123 124 124 122 115 113 114 113 115 114 114 113 111 110 107 104 104 105 104 105 107 108 108 108 109 109 110 111 114 115 116 116 118 122 122 119 118 120 121 121 121 119 116 115 117 117 115 116 116 116 116 115 116 118 117 116 115 114 115 117 118 114 110 111
276 52 302 286 15 346 140 156 185 174 178 151 139 144 143 149 133 134 137 124 130 130 126 126 124 120 113 116 125 129 130 128 126 126 126 124 120 115 114 114 114 114 113 113 112 111 112 109 107 105 106 106 106 107 107 107 107 111 111 110 108 110 114 115 115 117 119 120 119 119 120 120 120 118 117 115 114 116 115 115 116 117 118 117 118 119 118 119 120 119 114 113 117 118 114 112 110
254 54 306 296 29 298 192 168 180 166 149 136 140 131 120 141 138 144 138 125 130 123 122 129 127 118 116 127 132 134 133 130 131 128 126 124 120 117 115 116 115 114 114 114 113 113 113 112 110 108 108 108 108 107 108 109 110 111 110 110 111 112 114 115 113 114 116 117 117 118 120 120 118 116 116 115 113 115 115 117 118 118 118 118 119 118 118 120 120 118 115 115 119 118 116 114 110
186 67 96 306 287 200 190 188 190 173 158 162 152 135 135 208 175 145 130 127 126 129 134 135 129 121 133 140 137 139 136 134 134 128 126 125 121 117 117 118 116 114 117 118 117 117 117 115 115 114 114 112 111 110 111 112 113 112 112 111 112 111 111 114 113 112 114 115 116 118 120 118 116 116 116 114 111 111 114 117 117 115 117 120 120 119 120 120 117 116 117 119 118 115 113 111 109
92 42 118 313 260 213 199 183 188 177 152 155 149 156 157 168 173 122 119 138 121 133 141 137 138 134 142 139 133 136 136 135 133 130 128 124 119 118 118 117 115 113 115 120 120 122 123 120 119 118 116 116 115 113 113 115 116 115 112 111 113 111 111 116 116 115 114 114 117 120 121 118 116 117 113 109 109 108 111 116 116 118 122 124 124 124 122 119 118 121 122 120 116 111 109 109 109
116 283 288 277 252 227 254 180 142 189 150 144 152 181 154 130 132 117 146 161 125 135 136 138 141 131 134 132 132 135 135 134 133 132 128 125 124 122 120 116 115 113 112 119 122 125 126 123 121 120 116 118 120 115 114 116 116 115 111 112 114 114 115 118 118 117 116 115 118 122 122 120 120 118 112 110 112 111 110 115 119 122 123 122 121 122 121 119 121 124 122 116 111 106 103 104 110
176 304 332 291 302 133 266 238 123 213 157 146 170 182 148 128 149 154 151 142 130 138 132 140 136 124 125 127 132 135 135 136 136 134 131 132 130 126 124 123 122 117 116 121 125 128 126 126 124 122 119 120 122 117 120 121 116 112 110 112 113 116 117 118 121 122 121 119 121 126 124 121 121 119 116 116 117 115 115 119 124 125 123 121 120 122 123 121 120 120 117 112 109 104 100 100 103
200 123 280 249 287 213 259 290 98 204 158 152 174 167 146 142 158 163 145 135 142 143 137 139 127 120 124 129 135 136 137 139 138 138 138 137 133 130 127 129 127 119 123 125 126 129 126 127 126 124 123 124 126 124 128 128 123 120 115 113 116 120 121 123 129 128 127 124 122 125 125 122 121 120 118 118 117 116 120 126 128 125 124 123 121 120 118 116 115 115 114 114 115 111 116 119 106
175 142 241 213 320 284 275 298 68 243 213 169 166 158 145 147 152 156 147 143 151 147 141 134 125 128 133 136 138 137 141 140 140 142 141 138 133 132 129 134 128 119 128 128 124 131 128 127 126 126 128 129 131 131 134 132 129 129 128 128 125 126 128 127 128 128 129 127 124 126 126 122 120 120 119 118 117 118 125 134 131 126 126 119 112 111 114 116 114 112 112 115 121 127 132 147 168
207 144 290 339 99 295 309 339 51 75 250 189 154 155 151 149 146 151 155 148 151 148 139 134 134 138 138 139 141 141 144 140 143 145 140 139 135 134 133 135 127 123 134 132 128 135 133 132 130 130 131 132 135 137 137 134 135 135 136 139 132 129 129 128 128 130 132 129 126 128 126 122 120 122 122 122 125 129 131 129 125 124 123 115 109 111 114 113 110 100 102 115 124 132 139 153 177
268 127 317 292 204 285 5 3 59 83 276 221 155 157 154 147 145 155 163 150 144 142 136 137 139 141 140 142 143 143 144 143 146 145 142 140 136 136 134 133 125 125 132 134 137 140 137 139 137 135 135 133 137 143 141 141 145 143 142 140 134 129 126 126 128 132 135 131 128 128 125 120 120 123 125 127 131 135 133 128 129 129 126 118 118 127 121 109 113 88 89 121 123 112 123 142 131
253 99 286 259 268 310 93 36 69 96 261 235 155 148 150 144 150 158 164 150 140 135 135 138 139 140 141 142 144 145 145 146 146 144 144 142 137 135 134 133 127 126 130 136 141 139 140 146 142 139 140 139 139 144 147 149 150 149 147 140 136 130 124 124 124 127 132 131 130 128 125 120 121 125 126 129 131 132 135 138 139 137 141 135 131 139 138 127 135 52 67 112 130 118 114 116 112
215 172 238 222 145 220 187 80 62 84 286 268 143 138 150 144 145 155 161 153 141 133 134 139 139 140 141 143 146 145 144 145 145 144 144 142 137 136 134 130 129 130 130 136 141 139 146 152 147 142 140 142 143 147 154 152 145 146 145 139 139 130 124 128 126 125 127 129 129 125 125 125 129 129 126 126 125 128 134 137 136 135 136 130 131 140 150 143 108 104 81 89 126 133 135 135 137
210 192 202 195 155 159 112 91 71 75 32 303 191 143 138 136 140 154 154 142 136 133 136 140 141 142 143 146 144 143 146 146 146 145 142 140 136 135 132 128 129 132 133 138 145 148 154 155 148 143 140 144 145 145 148 147 143 141 139 136 135 130 131 134 128 127 128 130 128 122 126 133 136 133 127 127 129 134 135 133 133 132 128 121 126 140 160 165 104 114 107 100 125 148 164 169 168
198 188 163 166 164 118 94 101 91 85 103 305 239 147 132 147 153 152 141 133 134 136 139 142 144 145 145 143 143 146 147 145 147 144 140 138 137 135 132 133 134 133 135 140 146 150 154 152 148 144 143 148 146 144 143 141 136 131 133 134 131 132 137 134 127 128 131 132 131 127 127 133 138 138 134 135 138 139 136 138 140 140 148 137 122 128 144 136 117 125 121 119 153 172 154 145 146
161 168 136 150 145 104 144 131 99 60 101 320 231 158 146 164 163 145 134 133 138 141 142 146 146 146 145 141 142 149 147 146 147 142 139 138 140 139 135 138 135 131 135 138 142 148 151 150 148 145 145 147 142 141 143 140 134 131 137 137 133 132 133 133 129 130 135 134 131 129 132 140 141 138 138 139 140 140 140 145 147 143 145 138 125 129 133 122 116 127 123 114 109 128 133 130 126
135 137 124 134 116 113 190 127 114 183 118 22 258 157 149 167 165 143 137 139 144 145 145 148 148 145 142 140 145 150 145 147 147 142 142 141 144 141 137 139 133 131 137 139 143 149 150 147 145 146 144 142 137 134 135 136 140 146 146 143 141 135 131 133 131 132 140 138 129 124 133 143 140 140 144 142 143 146 146 145 142 136 131 130 131 133 128 118 111 104 95 88 108 151 154 155 157
123 118 104 108 106 130 180 132 153 190 94 25 285 158 154 170 161 143 142 146 149 147 147 150 148 144 142 142 148 149 146 149 149 144 142 142 147 143 137 139 134 132 135 139 144 147 145 143 142 142 139 137 136 133 133 136 141 145 143 143 145 138 130 130 131 135 138 137 131 126 131 135 135 143 150 144 139 141 142 138 133 127 130 143 137 129 126 119 117 108 91 75 82 241 200 172 162
115 105 97 113 114 147 165 157 154 98 52 18 312 167 159 169 159 148 150 152 151 149 151 153 147 146 144 145 152 148 148 152 149 145 142 147 151 143 139 141 135 132 136 140 144 145 144 143 139 137 137 136 134 133 135 136 138 139 139 141 143 138 133 130 133 136 133 133 132 126 129 133 135 142 150 142 133 137 142 140 137 130 131 136 134 137 130 116 113 98 91 98 70 291 235 211 173
106 81 78 164 156 168 160 184 156 100 36 10 10 148 153 170 161 154 158 155 155 154 153 153 149 150 146 149 154 146 151 156 152 148 147 154 151 143 142 139 134 135 138 139 143 147 145 142 139 138 140 137 133 133 133 134 135 136 138 140 141 139 138 136 135 135 131 131 130 128 130 135 137 143 150 146 143 149 151 152 149 139 135 127 119 123 112 106 110 84 77 111 303 289 234 350 135
119 99 28 246 208 160 152 196 189 138 104 105 216 134 128 181 167 159 161 159 158 157 155 153 152 152 149 154 154 148 157 160 155 151 153 156 147 142 143 136 136 140 138 136 144 149 141 139 139 139 141 136 133 133 131 132 133 134 138 140 141 143 143 142 139 138 136 134 134 135 136 138 141 144 149 148 151 157 153 152 152 144 142 139 128 108 101 101 101 85 83 74 333 328 259 196 127
154 161 187 228 214 164 152 201 205 146 120 86 145 124 75 206 173 164 163 164 162 159 158 156 155 153 152 159 154 151 161 160 157 155 155 153 144 144 142 136 139 140 137 139 145 145 137 140 141 138 139 135 134 134 130 130 132 134 138 140 143 145 144 144 143 141 140 141 142 140 140 143 146 146 150 151 153 157 152 149 152 149 139 141 151 118 101 88 82 80 62 52 340 324 294 252 156
176 202 185 169 190 169 159 184 212 180 138 116 94 126 204 243 186 169 165 168 164 163 163 157 157 156 156 162 155 156 163 162 159 155 155 151 147 146 140 139 141 137 138 142 142 137 136 141 141 138 137 136 135 135 132 132 133 135 137 142 146 147 145 144 144 144 143 144 146 147 147 149 150 150 151 155 158 158 152 145 146 141 127 134 134 96 87 81 87 86 55 42 347 336 325 334 109
160 185 186 142 183 180 170 169 176 180 150 135 125 135 203 258 204 171 166 170 167 168 166 160 160 157 160 164 154 158 166 162 156 156 157 151 149 148 141 141 141 139 139 139 136 134 138 139 136 136 137 137 137 136 137 135 136 138 140 145 150 150 146 144 143 143 145 146 150 153 150 150 154 154 154 151 146 146 144 140 138 127 121 124 104 83 73 88 87 75 65 16 5 341 319 322 349
136 158 163 152 185 200 179 167 155 159 143 139 154 150 180 243 203 176 171 169 171 175 168 163 162 158 165 164 155 163 167 158 156 161 158 151 151 149 144 143 142 140 137 138 139 134 138 139 135 140 140 139 139 141 143 142 143 145 146 149 154 151 147 149 148 143 148 148 151 154 150 156 159 156 159 150 138 137 138 136 128 116 109 98 93 93 87 93 81 67 68 332 350 306 285 280 317
112 136 150 162 170 190 171 162 152 157 147 150 167 149 180 221 196 181 176 168 172 178 173 168 164 163 170 163 159 166 163 157 158 163 159 152 154 149 146 147 140 139 140 142 143 138 142 145 141 145 144 143 147 148 150 151 152 152 151 155 157 152 148 152 150 147 151 149 152 157 152 159 161 153 153 144 136 133 134 133 121 110 105 90 81 81 86 95 91 85 94 298 298 293 295 243 295
133 136 134 129 122 73 145 145 154 168 165 169 176 164 186 225 220 195 185 177 178 178 176 175 169 169 172 161 161 166 159 158 160 162 159 155 156 151 150 151 140 143 151 145 142 143 146 146 145 148 148 151 154 154 156 156 156 157 158 160 159 154 148 150 151 151 152 149 154 157 152 159 159 153 152 144 137 129 128 129 120 110 110 110 91 83 92 111 99 70 46 358 298 289 323 56 150
120 150 133 107 114 104 96 145 160 176 152 171 177 171 184 254 284 311 342 200 195 184 176 176 174 172 171 163 162 166 159 159 164 161 161 160 157 152 153 152 143 148 155 145 143 146 145 146 148 150 152 156 157 157 160 158 160 165 160 155 156 155 149 149 154 153 148 149 154 154 155 160 153 150 153 144 136 127 127 129 125 120 117 127 125 119 120 91 73 58 42 12 338 298 310 75 201
135 174 131 139 174 160 149 167 166 159 43 167 163 152 181 288 297 309 350 331 290 261 192 176 179 176 171 166 163 168 164 162 168 164 164 164 158 156 156 154 149 153 155 147 147 149 146 149 151 153 157 158 158 158 158 156 156 161 157 150 151 150 145 142 144 148 149 151 154 155 159 157 149 154 154 147 143 132 133 137 135 138 130 129 124 121 135 105 72 61 55 16 357 341 338 97 182
162 184 167 163 176 183 177 148 147 119 35 158 143 126 198 208 231 245 333 5 337 303 225 181 179 181 172 169 167 171 168 164 170 167 168 166 159 159 159 155 155 156 155 151 153 154 150 151 154 158 159 156 158 159 156 154 147 142 141 141 143 140 142 143 142 148 156 158 158 161 162 158 155 158 156 157 157 142 138 135 135 143 137 134 145 142 141 132 105 66 37 14 15 2 348 2 108
168 207 212 172 160 160 144 138 139 134 174 183 163 138 190 197 208 198 27 349 288 299 243 190 177 183 175 174 173 171 168 167 172 168 168 167 160 162 161 159 160 158 159 157 157 156 151 153 157 159 158 153 159 161 156 155 150 144 138 139 146 145 148 157 155 156 161 165 165 162 163 164 163 161 161 164 158 149 143 136 139 149 145 146 163 131 107 101 100 86 41 6 15 17 351 351 61
201 208 175 131 131 134 135 144 150 157 170 181 187 177 139 203 230 186 147 191 195 283 246 196 178 183 177 178 178 172 169 169 173 169 168 169 164 163 164 165 164 160 162 159 155 155 153 154 156 156 155 154 158 158 155 157 155 157 155 153 158 156 157 163 164 161 164 170 164 158 162 166 166 164 165 164 156 156 153 148 154 155 156 163 152 112 110 117 119 102 68 16 16 32 11 4 25
217 137 126 125 134 137 141 152 159 145 127 152 199 238 110 190 228 171 163 180 189 240 233 195 179 186 180 181 181 174 171 170 174 171 168 171 168 166 168 169 166 163 163 158 152 154 154 155 156 156 155 157 160 156 157 161 158 164 169 165 165 163 162 159 157 158 164 167 156 155 164 165 169 170 167 163 158 162 159 159 166 157 167 170 152 170 168 137 122 110 88 55 36 32 16 13 25
197 115 121 131 134 137 142 149 144 143 140 153 196 219 114 179 199 151 167 187 203 231 228 195 181 186 182 182 181 175 172 170 174 174 169 171 170 168 169 170 168 164 164 158 150 152 154 154 157 159 156 160 165 160 161 164 160 169 175 169 169 167 159 154 155 156 158 158 153 157 164 163 169 170 167 168 164 167 166 169 172 162 177 167 162 202 170 126 130 146 144 132 89 47 12 5 25
90 105 109 101 106 120 130 136 139 147 162 176 189 195 169 172 176 161 178 198 203 220 227 202 182 184 187 184 180 175 172 171 174 176 170 169 172 170 170 173 170 164 164 159 151 151 155 155 158 161 159 160 165 164 166 163 160 171 172 164 168 166 159 155 157 158 154 153 155 160 165 167 173 174 171 175 173 174 174 176 176 173 184 173 180 214 162 135 152 167 171 127 101 73 42 329 355
111 114 110 93 85 84 102 106 132 156 196 192 184 192 201 209 186 181 187 196 196 196 208 202 185 185 189 185 181 175 173 174 175 176 171 169 173 172 171 175 172 165 164 162 156 153 155 159 161 161 161 161 163 166 170 166 163 169 168 163 163 161 161 157 155 158 157 157 158 161 166 169 177 181 178 180 181 181 182 182 181 182 184 179 194 203 168 164 175 173 182 159 142 143 69 308 303
180 140 111 98 81 59 99 100 210 208 211 185 183 189 203 223 195 190 195 191 199 200 198 197 190 188 189 187 184 178 175 177 176 175 172 171 172 171 173 177 173 166 165 164 161 157 157 162 163 161 162 164 164 168 172 169 166 169 167 164 161 158 161 159 156 161 166 165 163 168 173 172 181 187 183 184 189 187 186 186 185 188 186 180 192 200 188 196 194 180 182 177 172 173 204 273 281
220 166 116 113 83 234 188 166 210 228 126 171 182 182 201 237 171 173 189 192 199 202 196 193 191 187 188 190 185 178 176 178 178 174 170 173 172 171 174 175 171 165 164 166 164 160 159 162 164 163 164 166 166 168 172 172 171 169 165 164 163 160 162 163 160 165 173 172 169 175 177 176 182 189 185 187 192 189 188 189 186 188 190 186 185 198 217 215 201 187 177 188 200 189 212 246 253
216 211 170 144 111 262 237 212 211 172 89 95 142 164 199 271 149 162 184 196 201 203 196 191 196 190 186 193 188 175 172 177 181 174 170 175 172 170 172 169 166 165 167 168 163 160 161 162 165 165 165 167 168 168 172 173 171 169 167 168 168 165 164 166 164 168 176 176 176 179 180 180 184 187 188 191 193 189 187 188 188 188 192 192 190 196 211 203 194 190 183 199 215 197 218 246 240
199 217 220 180 160 164 192 255 221 141 99 50 94 175 227 244 237 185 184 186 192 209 194 164 226 210 185 192 193 173 169 179 182 172 173 177 170 170 171 166 165 169 174 171 161 160 162 162 166 166 165 168 169 170 172 172 172 173 172 170 171 172 169 168 170 172 174 178 181 182 184 186 185 186 189 191 191 187 186 188 188 191 193 194 197 197 195 196 201 203 197 208 222 204 230 261 260
192 200 211 206 191 175 177 268 120 142 156 122 167 204 297 223 251 258 174 156 153 185 160 139 243 247 193 190 194 175 174 181 179 175 177 173 169 172 171 167 166 172 180 171 158 161 165 163 168 168 167 171 170 172 175 173 174 177 174 170 173 177 174 172 178 179 178 182 184 183 187 188 185 187 187 187 189 185 185 189 187 192 196 195 199 198 194 200 204 206 212 222 226 232 246 250 263
217 209 207 197 191 186 223 135 146 176 179 153 179 163 328 219 227 210 148 137 143 147 129 155 205 256 221 201 191 176 177 181 177 177 176 167 170 177 172 168 169 172 181 172 158 162 165 165 169 169 169 172 172 173 176 176 177 178 177 175 175 178 179 180 180 181 184 187 186 186 188 186 186 190 187 185 188 187 188 192 188 193 197 195 202 200 197 205 202 200 218 225 221 239 252 241 252
271 269 228 192 192 186 232 218 194 206 171 150 187 155 181 237 218 158 148 139 175 192 154 162 193 234 236 228 206 181 177 183 179 173 174 167 172 179 174 170 172 172 178 171 161 165 166 166 171 171 171 174 174 175 176 178 180 180 181 181 179 180 183 185 182 183 190 190 190 190 189 189 189 191 192 189 187 188 192 194 191 196 197 195 204 202 199 211 206 199 217 227 225 237 252 250 253
242 288 4 256 223 194 203 226 241 240 151 142 179 139 187 243 228 193 170 157 178 195 173 172 191 215 223 224 219 194 177 182 181 174 178 173 174 181 177 171 171 172 175 171 167 171 169 168 173 173 174 176 175 177 177 178 181 182 184 186 186 185 185 188 187 188 193 190 191 193 191 193 191 191 196 191 186 188 192 194 193 197 198 196 203 205 203 211 211 206 220 232 230 232 243 249 250
233 260 255 230 237 217 208 224 259 262 179 141 159 160 214 238 220 206 187 167 171 179 180 182 187 212 226 217 214 199 179 179 184 181 183 177 177 183 180 173 172 174 177 174 175 177 171 171 175 174 176 178 178 179 178 179 183 185 184 185 189 191 191 194 193 191 194 194 196 196 192 191 189 191 193 189 190 192 190 194 195 194 199 198 201 205 203 208 213 211 219 231 230 225 226 237 246
209 235 238 231 233 206 208 232 243 251 251 175 155 182 229 239 219 211 197 175 170 172 176 180 187 209 227 230 225 205 177 175 183 182 184 181 180 183 181 176 174 176 180 179 179 180 174 172 175 174 176 179 181 180 178 181 187 187 186 185 189 193 194 197 196 194 198 200 199 195 192 192 192 192 192 190 194 196 192 196 198 197 201 200 201 205 205 209 214 215 221 228 225 223 221 226 240
197 207 221 232 234 208 206 236 233 228 263 272 122 127 256 260 241 219 200 178 170 172 173 180 190 200 212 229 242 221 175 177 183 183 186 182 180 183 181 179 177 177 182 183 180 180 178 174 174 174 176 179 182 181 179 183 187 187 189 189 189 192 194 196 197 199 204 203 199 195 193 194 195 194 195 195 196 198 197 199 201 200 201 201 201 204 207 209 211 216 222 225 225 230 233 231 237
Height
775 776 775 777 776 779 782 784 800 802 800 810 803 795 790 775 769 773 775 772 772 768 758 757 756 755 764 773 778 777 776 782 786 796 815 811 803 809 809 811 813 814 817 817 819 819 819 820 820 821 821 821 821 822 823 824 825 825 825 826 826 827 827 828 829 830 829 827 829 831 833 833 833 833 833 834 835 835 835 836 837 838 840 841 843 845 845 846 848 850 849 848 847 846 845 845 845
775 776 775 777 776 782 788 787 805 809 802 811 805 792 781 770 771 777 776 772 770 763 755 756 758 758 761 765 769 776 782 781 779 787 799 801 805 809 809 811 812 814 817 818 819 819 819 820 820 821 820 821 822 823 824 825 825 826 826 826 826 827 828 828 829 830 829 829 830 833 834 833 835 835 835 836 836 837 837 837 838 839 840 840 842 844 845 845 846 848 849 849 849 849 848 847 847
776 777 776 778 779 783 789 791 806 812 809 816 809 785 772 775 777 775 769 764 761 755 755 757 761 762 763 772 775 784 792 784 781 787 796 802 805 808 810 811 812 815 817 818 819 818 819 820 820 820 821 822 823 824 824 825 826 826 826 827 827 828 828 829 829 830 830 831 833 834 835 835 836 837 837 837 837 837 838 839 839 839 840 840 841 842 844 845 845 843 846 850 851 851 850 849 849
776 778 777 778 784 789 794 800 804 809 816 813 803 783 771 776 773 769 763 758 756 754 759 762 766 762 765 780 779 784 793 788 786 789 796 801 803 806 809 811 814 816 817 818 819 819 819 819 820 821 822 823 823 824 824 825 826 826 827 828 828 829 830 830 831 831 831 832 834 836 836 837 837 837 837 837 838 838 839 840 840 840 841 841 842 844 844 845 846 844 844 848 852 852 852 851 851
775 778 779 779 790 794 796 804 803 808 813 802 795 784 771 770 768 766 761 757 755 758 762 764 771 765 764 775 775 786 792 788 789 789 795 800 802 806 808 811 813 815 817 818 818 819 819 819 821 822 823 823 824 824 825 826 826 827 828 829 829 829 830 830 831 831 832 834 835 837 837 837 837 837 837 838 838 839 840 840 841 841 842 843 844 845 845 845 846 846 845 848 852 853 853 853 853
775 778 779 779 786 789 798 808 807 807 798 788 788 779 768 765 765 765 761 759 756 758 760 764 770 769 772 772 771 782 784 785 790 790 794 799 803 805 808 811 813 816 817 818 819 819 819 820 821 822 823 823 824 825 826 826 827 828 828 829 830 830 831 831 832 832 833 834 835 837 838 838 837 837 838 838 839 840 840 841 842 842 843 844 845 846 846 846 847 848 848 849 852 853 854 854 854
775 780 784 786 789 790 805 810 804 802 790 783 782 772 767 764 762 764 765 766 764 760 761 764 764 771 781 776 776 779 778 784 786 791 795 798 803 805 809 811 813 816 817 818 819 819 821 822 822 823 823 824 825 826 827 827 828 829 830 830 831 832 832 833 833 834 835 835 836 837 838 838 838 838 839 840 840 841 841 841 843 844 844 845 846 847 847 847 849 849 849 851 853 854 855 855 855
774 781 786 793 801 801 808 807 800 797 788 785 780 767 764 762 761 765 768 770 770 765 763 765 763 777 785 777 785 784 779 785 786 792 796 798 803 806 809 811 813 816 818 819 819 820 821 822 823 824 824 826 827 828 828 828 829 830 831 832 832 833 833 834 835 835 836 836 836 837 838 838 839 839 840 841 841 842 842 842 844 845 845 846 847 847 848 848 849 850 850 852 853 855 855 855 855
774 780 787 797 806 807 807 805 800 793 787 789 782 765 760 759 761 765 769 769 767 765 765 765 765 781 787 782 790 786 782 789 790 794 796 800 803 806 810 811 814 816 818 819 819 821 821 823 823 824 825 827 828 829 830 830 830 831 833 833 834 834 834 835 835 836 836 837 837 838 838 839 840 840 841 841 842 843 843 844 844 846 846 847 848 848 849 849 850 851 852 852 854 855 856 856 856
776 780 790 800 806 811 809 805 800 793 788 785 774 762 760 759 761 764 768 769 765 766 765 763 769 780 786 789 793 787 787 791 791 795 797 801 803 807 810 812 814 815 819 820 820 821 822 823 823 825 826 827 829 830 831 831 832 832 834 834 834 834 834 835 836 837 837 838 838 839 839 839 840 840 842 842 843 844 844 845 846 847 848 849 849 850 850 850 852 852 853 853 854 855 856 856 856
783 783 789 802 809 814 810 805 800 794 788 778 769 762 759 759 763 766 765 767 764 768 767 767 777 781 785 792 793 789 789 792 793 796 798 801 804 808 811 813 815 816 819 820 821 822 823 825 825 826 827 829 830 830 831 832 833 834 835 835 834 834 835 836 836 838 838 839 839 839 840 840 841 841 843 843 845 846 846 847 847 848 849 850 851 851 852 852 853 853 854 854 855 856 856 857 856
788 790 794 805 808 809 804 804 801 795 790 780 774 764 758 759 765 769 768 769 766 770 770 769 777 778 789 797 792 789 789 793 795 797 800 802 804 807 811 814 817 818 820 821 823 824 825 826 827 828 828 830 830 831 832 833 834 835 836 836 835 835 836 837 837 838 839 839 840 840 841 841 842 843 844 845 846 847 848 849 849 850 851 851 852 853 853 854 854 855 855 856 856 856 856 857 857
788 793 799 803 802 804 801 803 798 792 790 780 775 765 759 762 767 770 768 769 768 773 770 765 770 774 791 797 790 790 791 794 796 799 801 802 805 808 811 814 817 820 821 822 823 825 826 827 828 829 830 831 831 832 833 834 836 836 837 837 837 837 837 838 838 839 839 840 840 841 842 842 843 844 845 846 847 849 850 850 851 852 852 853 853 853 854 855 855 856 856 857 857 857 857 857 857
785 790 797 801 800 802 800 802 796 793 793 778 771 767 764 766 765 764 766 773 773 771 767 760 764 777 791 794 794 793 792 795 797 800 801 803 805 808 812 815 818 820 821 822 824 825 827 828 829 830 831 832 833 834 835 835 837 837 838 838 838 838 839 840 840 840 840 841 841 842 843 843 844 845 846 847 848 850 851 852 852 852 853 854 854 854 855 856 857 857 857 858 858 857 857 858 858
779 784 793 802 803 802 799 800 795 793 792 777 770 769 770 768 761 761 765 774 774 761 759 760 762 780 792 793 797 792 790 795 797 800 801 804 806 809 813 815 818 820 821 822 823 825 826 828 829 831 832 833 834 834 836 836 838 838 838 839 839 840 841 841 841 841 841 842 842 843 844 844 845 846 847 848 849 851 852 853 854 854 854 855 855 856 856 857 857 858 858 859 859 858 858 859 859
773 780 793 806 806 802 796 792 793 793 784 772 769 767 774 771 758 764 764 763 768 758 760 767 764 774 784 786 789 786 789 795 797 801 802 804 807 810 813 815 819 820 822 822 823 825 826 829 830 832 833 834 835 835 836 837 838 839 839 840 840 841 841 841 841 842 842 843 843 844 845 845 846 847 848 849 850 852 854 855 855 856 856 856 856 857 857 858 858 859 859 859 859 859 859 860 860
771 782 796 805 804 802 795 788 796 794 778 771 770 767 775 775 763 764 760 757 766 765 764 768 763 767 775 779 783 785 790 794 797 801 802 806 808 811 814 815 819 820 822 823 824 825 827 829 830 832 834 835 836 836 837 838 839 840 841 841 842 842 842 842 842 843 843 844 845 845 845 846 847 849 849 850 850 853 855 856 857 857 857 857 858 858 858 859 860 860 860 860 860 860 860 861 861
777 790 801 804 802 800 792 785 789 787 776 774 773 769 772 778 773 763 762 766 768 769 768 766 765 767 772 778 783 787 791 794 797 801 803 806 808 811 814 815 817 819 821 823 826 826 828 830 831 833 835 836 836 837 838 839 840 841 842 843 844 844 843 844 843 844 845 845 846 846 847 847 848 850 850 851 851 853 856 858 858 858 858 858 859 859 860 860 860 861 861 860 860 861 861 862 862
780 794 803 801 795 790 783 779 780 780 777 776 773 768 770 776 773 764 770 778 774 775 773 768 772 775 777 780 784 789 792 795 798 800 803 805 808 811 814 815 817 819 819 822 826 826 828 830 832 834 836 837 837 838 839 839 841 842 844 845 845 846 845 845 845 845 846 847 847 847 848 848 849 850 852 853 853 854 857 859 859 859 859 859 860 860 860 861 861 861 861 861 861 862 862 862 863
779 791 801 793 786 783 778 776 778 780 778 777 774 768 770 771 767 767 775 780 776 778 775 773 782 784 782 783 784 789 792 795 798 800 803 804 807 810 813 815 816 820 820 822 826 827 829 831 833 836 837 838 838 838 839 840 841 842 844 845 846 847 847 846 845 846 847 848 849 849 850 849 850 851 853 855 855 856 858 860 860 860 861 861 861 861 861 862 862 862 861 862 862 862 862 862 863
779 788 794 784 780 783 778 776 779 782 781 777 773 772 774 769 765 770 775 781 782 776 770 774 781 783 783 784 785 789 791 795 798 800 802 803 806 810 813 815 817 821 822 823 826 828 830 832 834 837 838 839 839 839 840 840 840 842 843 845 847 847 847 847 846 847 848 849 850 851 851 851 851 852 854 855 856 858 859 860 860 861 861 861 862 862 862 862 862 862 862 862 862 862 862 862 863
777 782 784 779 778 784 779 774 778 783 787 781 774 775 774 768 769 773 775 783 782 770 767 771 774 778 781 783 785 788 791 794 797 799 801 803 805 808 811 814 818 822 823 824 826 828 830 833 836 838 840 841 839 839 840 840 839 841 843 845 846 847 847 847 847 847 849 850 851 852 852 852 853 854 855 856 858 859 860 861 861 862 862 862 862 863 863 863 863 863 863 863 862 862 862 862 863
779 781 779 778 775 780 779 775 777 780 790 786 773 770 766 770 777 772 773 779 771 762 764 769 772 775 778 781 785 787 790 793 795 798 800 802 805 808 810 814 818 822 823 824 826 829 830 834 837 839 842 844 842 840 840 840 840 841 843 845 847 847 847 848 848 848 849 851 852 852 853 854 854 855 856 857 858 859 861 861 862 862 862 863 863 863 864 863 863 863 863 863 862 862 863 863 863
779 785 781 778 774 777 777 777 778 778 788 783 767 767 769 775 778 771 773 772 763 761 763 768 772 774 778 782 785 787 790 792 794 797 799 801 804 807 810 813 817 821 824 825 827 829 831 834 837 839 841 844 844 843 841 840 841 842 842 845 847 848 849 850 849 849 850 851 852 853 853 854 855 855 856 857 858 859 861 861 862 862 862 863 863 863 864 863 863 863 863 863 862 863 863 863 863
777 785 785 778 776 778 776 777 780 777 783 782 771 773 775 772 773 773 772 767 763 763 765 769 773 776 780 783 785 787 789 791 793 796 798 801 803 806 810 813 817 821 824 826 828 830 833 834 836 838 840 842 845 846 843 840 841 843 844 845 847 848 849 850 850 850 851 852 853 853 854 855 856 856 857 857 858 859 860 861 862 863 863 863 863 863 864 864 863 863 864 864 864 864 863 863 863
773 776 781 779 780 780 780 780 781 779 778 781 781 780 777 769 770 776 770 764 765 765 769 772 775 779 781 783 786 787 789 791 793 795 798 800 803 806 809 813 816 820 824 827 829 832 834 835 836 837 839 841 843 846 845 841 840 842 844 846 847 848 849 850 851 852 852 853 853 854 855 856 856 856 857 858 859 859 860 861 862 863 864 864 864 864 864 864 864 864 864 864 864 864 864 863 863
764 769 775 779 784 783 783 783 783 783 779 782 786 784 779 769 773 783 771 763 766 768 774 775 777 782 782 784 786 787 789 791 793 795 797 800 803 805 808 812 815 819 824 826 828 830 833 835 836 837 838 840 841 844 846 844 841 841 843 846 848 848 849 850 851 852 853 854 855 857 857 856 856 856 857 859 859 860 861 861 863 863 864 864 865 865 865 865 865 865 865 864 864 863 864 863 863
761 768 775 781 786 786 785 785 786 785 784 784 783 782 780 774 779 783 771 765 768 772 777 777 780 783 783 786 787 787 789 791 793 795 797 800 802 805 808 810 813 819 823 825 827 829 832 833 835 837 837 839 840 842 844 845 844 843 845 846 848 849 849 850 850 852 854 855 856 858 858 856 856 858 859 860 860 861 862 862 863 864 864 865 865 866 866 866 866 866 865 865 864 864 864 864 863
762 767 782 788 788 792 790 787 786 785 788 784 782 791 792 786 783 777 769 767 769 774 779 779 781 783 784 787 787 788 790 791 793 795 798 800 803 804 807 810 813 818 822 824 827 828 830 832 834 836 837 838 840 841 843 845 846 846 846 846 847 848 849 850 850 852 854 855 856 858 859 858 858 859 860 861 861 862 862 863 864 864 865 865 866 866 866 866 866 866 866 865 865 864 863 863 863
766 771 785 793 796 801 794 789 786 786 791 782 785 806 806 792 782 773 768 768 771 778 780 780 782 783 786 788 789 790 790 792 793 795 798 800 802 804 807 810 813 817 821 823 826 827 829 831 833 835 836 838 839 841 843 844 846 846 846 846 846 847 848 850 851 852 853 854 856 858 859 860 860 860 860 861 861 862 863 863 864 865 865 866 866 866 866 866 866 866 866 866 865 864 863 863 863
772 781 788 793 804 808 795 790 789 791 793 782 789 811 807 792 781 772 768 768 773 780 781 781 783 784 786 788 789 791 791 792 794 795 799 800 802 804 807 810 813 817 819 822 825 826 828 830 832 834 835 837 839 840 842 844 845 846 846 846 847 848 849 850 851 852 853 854 856 858 859 860 861 861 861 862 862 863 864 864 865 865 866 866 866 866 866 866 866 866 865 865 864 864 864 863 863
775 791 800 797 800 804 796 791 792 795 794 785 794 811 809 796 781 772 769 769 774 781 782 782 783 785 787 789 789 792 793 792 793 796 798 800 801 804 807 810 813 816 818 822 824 826 828 829 831 833 835 837 838 840 841 843 844 845 846 847 848 849 850 850 851 852 853 855 856 858 859 860 861 862 862 863 863 864 865 865 865 866 866 866 866 866 866 866 866 866 865 865 864 864 864 864 863
779 788 804 804 801 806 804 798 793 792 794 792 796 809 815 802 781 772 770 771 776 781 783 783 784 786 787 789 789 792 793 792 793 795 797 800 801 805 807 810 813 815 818 821 823 825 827 829 831 833 835 837 838 840 841 842 844 845 846 847 848 849 850 851 852 853 854 855 856 857 859 860 861 862 863 863 863 864 865 865 865 866 866 866 866 866 866 866 866 866 866 866 865 865 864 863 863
787 788 796 801 801 806 809 804 795 790 794 798 798 804 812 803 783 774 773 772 777 782 783 784 784 786 787 788 790 792 794 794 794 795 797 800 802 805 808 811 813 815 819 821 823 826 827 829 831 833 835 837 838 840 841 843 844 845 846 847 848 849 850 851 852 853 854 855 856 857 858 859 860 861 862 863 863 864 864 865 865 865 866 866 865 866 866 866 866 866 866 866 866 865 864 863 863
788 791 791 797 797 802 806 801 796 793 796 801 803 805 807 801 786 777 775 774 779 782 782 783 784 786 788 788 790 793 793 794 794 794 797 800 802 805 808 811 814 816 819 821 823 825 827 830 831 833 835 837 839 840 841 843 844 845 846 847 848 849 849 850 852 853 854 855 856 857 858 858 859 860 861 862 862 863 864 864 865 865 865 865 865 866 866 866 866 866 867 866 866 866 864 863 864
778 784 788 798 799 802 800 793 790 792 799 805 804 806 806 801 790 781 778 776 780 783 781 783 785 786 788 788 790 792 793 793 793 794 797 799 802 805 808 811 814 816 819 822 824 826 828 830 831 834 836 837 839 840 841 843 844 845 846 847 848 849 849 850 851 852 854 855 856 856 857 858 859 860 861 862 862 863 864 864 864 865 865 866 866 866 866 867 867 867 867 867 866 865 864 863 863
768 779 786 793 798 803 797 791 791 789 801 809 803 803 805 800 792 783 779 778 782 785 785 785 786 787 788 788 791 792 792 792 792 794 797 799 803 805 808 811 813 817 819 822 824 826 828 830 832 834 836 838 839 840 841 842 843 844 845 847 847 848 849 850 851 852 853 854 855 856 857 858 859 860 861 862 862 863 863 864 864 865 866 866 866 866 867 867 867 867 868 867 867 865 864 864 863
769 781 789 794 800 805 798 794 795 789 800 810 803 804 806 800 795 788 783 784 785 785 786 788 787 787 787 787 791 791 791 790 791 794 796 799 802 805 808 810 813 817 819 822 824 827 829 830 832 834 836 838 839 840 841 842 843 844 845 846 846 848 849 850 851 852 853 854 855 856 857 858 859 860 860 861 862 862 863 864 864 865 866 866 866 867 868 868 868 868 868 867 866 865 864 864 864
773 780 789 800 802 803 803 800 796 793 801 809 806 808 809 802 797 795 792 791 786 782 783 786 786 787 787 788 790 791 791 793 793 794 796 799 801 804 808 810 814 817 820 822 824 827 829 831 833 834 836 837 839 840 841 842 843 844 845 845 846 847 849 850 851 851 853 854 855 856 857 858 858 859 860 860 862 862 863 864 865 865 866 867 868 868 869 869 869 868 868 868 867 865 865 865 864
775 776 787 804 801 799 808 807 800 798 802 807 808 812 813 807 801 798 797 795 791 787 783 782 784 786 786 786 788 790 792 795 795 794 795 798 801 804 807 809 813 817 819 821 824 826 828 830 832 833 835 837 838 840 841 842 843 843 844 845 846 847 849 850 851 852 853 854 855 856 857 857 858 859 860 861 862 862 863 864 865 866 866 867 868 868 869 869 870 869 869 869 868 866 865 864 864
773 770 779 795 794 792 798 802 804 805 806 806 809 821 823 813 811 806 799 798 797 795 789 785 785 784 784 785 786 788 790 793 795 796 796 797 800 804 806 809 812 815 818 821 823 826 828 830 831 833 834 836 838 839 841 842 843 844 844 845 846 847 848 850 851 852 853 854 855 856 857 857 858 859 860 861 862 863 864 864 865 866 867 868 868 868 869 870 870 870 869 869 868 867 866 865 865
772 766 762 771 782 790 794 798 807 818 821 810 808 830 834 817 813 811 805 805 804 803 798 790 788 786 785 787 787 787 788 790 793 794 795 797 800 804 806 808 811 814 817 820 822 824 827 829 831 833 834 836 838 839 841 842 842 844 844 845 846 847 849 850 850 851 853 854 855 856 857 857 858 859 860 861 862 863 864 865 866 867 868 868 869 869 869 870 870 870 870 870 869 868 867 866 865
768 757 749 760 774 788 798 802 810 822 825 810 804 824 836 824 815 811 809 811 811 812 806 793 789 789 787 788 787 786 788 790 791 792 794 797 800 803 806 808 810 813 816 819 822 824 826 829 830 833 834 836 838 839 840 842 842 844 845 845 846 847 849 850 851 852 852 853 854 855 857 857 859 859 860 861 862 863 864 866 866 867 868 868 869 869 870 870 870 870 871 870 870 869 868 867 866
757 743 745 763 772 782 796 803 810 814 813 813 809 813 829 832 819 810 811 815 816 814 806 794 790 789 787 787 786 785 787 788 791 792 794 796 799 802 805 807 809 811 814 817 821 824 826 828 830 832 834 836 837 839 841 842 843 844 844 845 846 847 848 849 851 851 852 853 854 855 857 857 859 859 860 861 862 864 864 866 867 867 868 869 869 869 870 870 870 870 871 871 871 870 869 869 867
744 734 746 761 768 779 788 796 804 805 811 826 821 812 827 835 819 810 815 818 819 815 805 794 790 789 787 786 785 784 785 786 788 791 793 795 798 801 804 806 808 810 813 816 819 823 825 827 830 831 833 836 837 839 840 841 842 844 844 845 846 847 848 849 850 851 852 853 854 855 856 857 858 859 860 861 862 863 864 865 866 867 868 868 868 869 869 870 870 871 871 871 871 871 871 870 870
738 738 754 764 772 781 786 794 800 804 816 829 822 812 826 836 823 817 822 820 817 816 807 793 787 787 786 784 783 783 784 786 787 788 791 794 797 801 803 805 807 809 812 815 818 822 825 827 829 831 832 835 837 838 840 841 842 844 844 845 846 847 848 849 850 851 852 853 854 855 856 857 858 859 860 861 862 863 864 865 866 867 867 867 868 869 868 869 870 871 871 871 871 871 872 871 871
733 746 764 774 782 784 788 796 800 813 825 821 812 805 814 830 826 816 816 812 807 809 806 794 787 786 784 782 782 782 784 786 787 788 789 793 796 799 802 804 805 809 811 814 817 820 824 826 828 831 832 833 836 838 840 841 842 843 844 845 846 846 848 849 849 851 852 853 854 854 856 857 858 859 860 861 862 863 863 864 865 866 867 867 868 868 868 869 870 871 872 872 871 871 872 872 872
729 747 766 783 798 798 801 808 809 823 829 813 803 800 807 824 823 809 804 799 795 797 798 793 789 787 783 781 781 781 783 784 785 788 789 791 795 797 800 803 804 807 810 812 816 819 822 825 827 830 831 833 835 837 839 840 842 843 844 845 846 846 847 848 849 851 851 852 854 854 855 856 857 858 859 860 861 862 863 863 864 865 866 867 868 868 868 869 870 871 871 872 872 872 872 873 872
733 747 768 796 819 820 819 822 819 822 821 806 796 800 811 814 803 797 798 794 790 788 787 787 786 784 782 780 779 779 781 783 784 786 789 790 793 796 798 801 804 806 809 812 815 818 821 824 827 829 831 832 834 836 837 839 841 842 843 844 845 846 847 848 849 850 851 851 853 854 854 856 856 857 858 859 860 861 862 863 864 864 865 866 867 867 868 869 869 870 871 871 871 872 872 872 872
745 752 768 801 828 836 835 826 819 820 817 806 798 805 818 813 795 790 791 789 786 781 780 782 780 779 780 777 776 777 780 782 783 784 788 789 791 795 797 800 804 806 809 812 814 818 821 823 826 828 830 832 833 835 836 838 840 841 843 843 844 846 846 847 848 850 850 851 852 853 854 855 856 857 858 859 860 861 861 862 863 864 864 865 866 867 867 868 869 869 870 870 870 871 871 872 872
745 743 751 780 805 826 837 826 820 824 821 815 813 814 819 814 799 787 782 783 783 781 779 780 781 777 775 775 775 777 780 781 782 783 786 788 790 793 796 798 803 806 808 811 814 817 819 822 825 827 829 831 832 834 835 837 839 840 842 843 844 845 846 847 848 849 850 851 851 852 854 854 855 856 857 858 859 860 861 862 863 863 864 865 865 866 867 867 868 869 869 870 870 870 871 871 871
738 731 746 766 771 785 804 801 801 813 819 819 816 813 806 798 791 780 777 783 783 783 783 784 788 781 774 777 776 776 780 781 782 784 785 786 789 792 795 797 802 805 807 809 812 816 818 821 824 825 828 830 831 833 835 836 838 839 840 842 843 844 845 846 847 848 849 850 851 852 853 854 855 856 856 858 859 859 861 861 862 863 864 865 865 865 866 867 867 868 869 869 869 870 870 870 871
739 738 748 748 739 755 782 790 786 793 814 820 812 811 803 793 791 782 779 788 788 786 787 787 790 786 778 779 777 776 780 780 781 784 784 786 789 791 794 796 800 803 806 808 811 814 817 819 822 824 827 829 831 832 834 836 837 838 839 840 842 843 844 846 847 848 849 850 851 851 852 853 854 855 856 857 858 859 860 861 862 863 864 864 865 865 866 866 867 867 868 868 868 868 869 869 870
744 750 740 730 734 748 769 790 792 792 815 823 809 813 815 808 804 789 784 798 796 789 790 789 789 788 784 781 778 777 778 779 781 782 783 785 788 790 792 795 799 801 804 807 810 814 816 818 821 823 825 827 829 831 833 835 836 838 839 840 841 842 844 845 846 847 848 849 850 851 852 853 854 855 856 856 858 858 860 861 862 863 863 864 865 865 866 866 866 867 867 868 868 868 868 868 869
733 739 731 737 760 768 769 785 793 798 817 824 814 815 817 811 803 790 789 800 800 792 790 791 791 790 787 783 780 777 777 780 781 781 783 784 787 790 791 794 797 800 803 806 809 812 814 817 819 821 824 825 828 830 831 833 835 836 838 839 840 841 843 844 845 846 847 848 850 851 851 853 853 854 855 856 857 858 859 860 861 863 863 864 865 865 866 866 866 867 867 867 867 867 868 868 868
729 733 732 737 753 762 767 772 776 788 805 816 825 829 816 798 788 784 784 788 791 791 789 790 792 791 787 783 780 778 777 780 781 781 783 783 785 789 789 793 796 799 802 804 807 810 812 815 818 820 823 824 826 828 830 832 834 835 837 838 840 841 842 843 844 845 847 847 849 850 851 852 853 854 855 855 857 857 858 859 860 862 863 863 864 865 865 866 866 867 867 867 867 867 868 868 868
741 748 749 745 743 746 758 762 759 771 787 794 814 829 812 784 775 777 776 775 779 783 784 788 790 789 786 782 780 777 775 778 779 780 781 782 784 787 789 792 795 798 801 803 805 808 810 813 815 818 821 823 825 826 828 831 832 834 835 837 839 840 841 842 843 844 845 847 848 849 850 851 852 853 854 855 856 857 857 859 860 861 862 862 863 864 865 865 866 866 867 867 867 867 867 867 867
736 745 747 747 745 749 769 777 758 755 768 771 789 819 810 778 768 770 769 770 772 774 778 783 785 786 784 781 779 776 774 776 777 777 779 780 782 786 788 792 794 797 799 801 803 806 808 811 813 816 818 821 823 825 827 829 831 832 834 835 837 839 840 841 842 844 845 846 847 848 849 850 851 852 853 854 855 856 857 858 859 860 861 862 862 863 864 865 865 865 866 867 867 866 867 867 867